Dewpoint
19 20 22 24 23 23 26 29 29 32 37 38 40 42 44 47 48 50 54 62 62 62 63 63 62 62 61
18 19 19 21 22 26 26 25 27 31 35 39 40 41 45 45 47 49 49 59 61 61 61 61 62 61 61
19 20 21 23 24 24 25 27 29 32 37 40 41 41 43 44 46 47 48 51 59 59 59 59 60 60 61
21 20 20 21 22 22 24 26 27 34 35 37 39 40 42 44 45 45 48 50 54 59 58 58 58 58 59
19 18 19 19 19 22 23 24 27 31 34 37 40 41 41 42 44 45 47 48 52 58 58 58 57 57 58
18 18 18 19 21 23 24 24 27 33 34 33 36 36 38 41 42 45 46 46 48 55 56 57 56 56 56
21 19 18 19 20 21 21 22 22 25 29 31 33 33 36 39 42 44 45 46 46 47 55 55 55 55 56
24 26 27 26 27 26 24 24 25 27 30 29 30 30 33 35 39 43 45 45 46 48 52 55 54 54 55
28 28 27 27 25 24 24 25 24 24 27 28 28 29 33 35 38 44 42 43 45 48 51 54 54 54 54
24 26 28 28 29 30 31 27 25 24 26 27 28 31 32 38 41 41 42 42 43 46 51 53 53 56 57
26 24 24 24 24 24 24 26 27 26 27 27 30 31 32 32 34 39 39 40 41 44 44 51 52 55 57
28 28 25 25 26 26 27 27 27 26 27 30 32 32 32 32 32 33 36 38 41 40 43 47 52 53 54
29 27 26 26 27 28 29 30 30 29 29 31 33 33 33 32 32 32 33 34 36 39 40 41 44 53 54
26 28 30 30 29 29 29 30 31 32 34 35 35 35 32 32 32 31 32 32 34 35 37 38 40 43 54
24 25 26 28 30 29 30 30 29 27 28 32 34 34 34 33 31 31 31 32 33 33 34 35 37 41 46
24 25 25 26 26 29 31 30 29 28 28 24 24 31 30 30 34 31 31 32 33 33 33 33 34 38 42
23 24 24 24 25 25 26 27 28 28 25 25 29 29 27 25 29 35 32 32 32 32 32 33 34 37 41
Lifted_Index
14 14 14 16 18 20 22 22 22 22 21 19 17 14 10 8 5 2 -0 -1 -1 -1 0 1 1 1 2
14 14 14 15 16 18 20 21 22 21 20 19 17 15 12 10 7 4 1 -0 -1 -1 -0 0 1 1 2
15 15 15 15 15 16 18 19 20 20 19 18 17 16 14 12 10 6 2 0 -1 -0 -0 0 0 1 2
14 14 15 15 15 15 15 17 18 18 17 17 16 16 15 14 12 8 4 1 -0 -0 0 0 1 1 1
13 13 14 14 14 14 14 15 16 17 17 17 16 16 16 14 13 10 7 3 1 1 0 0 1 1 1
10 11 12 13 14 14 14 14 14 15 17 17 17 17 16 15 13 12 9 6 4 2 0 0 0 0 1
8 9 10 12 13 13 13 13 13 14 16 17 18 18 17 16 14 12 11 8 5 2 1 1 0 0 0
8 8 9 10 12 12 13 13 13 14 15 17 17 18 17 16 14 13 12 10 6 3 1 1 0 0 0
6 7 8 9 11 11 12 13 13 13 14 16 16 17 17 15 14 12 11 10 7 4 2 1 0 0 0
5 6 7 8 9 10 11 12 13 13 14 15 15 15 15 14 13 11 10 10 8 5 2 1 -0 -0 0
5 5 6 7 9 10 11 11 12 12 13 13 14 14 14 13 12 11 10 9 9 6 3 1 0 0 0
5 5 5 6 7 9 10 11 11 12 12 12 13 14 14 14 12 11 10 9 9 7 5 3 3 2 1
5 5 5 5 6 7 8 9 10 10 10 11 12 13 14 14 13 13 11 10 10 9 7 6 5 3 2
5 5 6 6 6 6 7 8 8 9 9 10 11 12 13 14 14 14 13 11 11 10 9 7 6 5 4
6 6 6 6 6 6 6 7 7 8 9 9 10 11 13 15 15 15 14 13 12 11 10 9 7 5 5
7 7 6 6 6 6 6 7 7 7 8 9 10 11 13 14 16 16 15 14 13 12 11 9 7 6 5
8 7 7 6 6 6 6 6 7 7 8 9 10 11 12 14 16 16 16 15 14 13 11 10 9 7 7